Find Kosmos-2556

NORAD ID: 52713 Int'l Des: 2022-054 Owner: VVKOV Country: RU operational
LEOCIRCULARRETROGRADESSO

Current View

Loading 3D Globe...

About Kosmos-2556

Kosmos-2556 (NORAD 52713) is a satellite launched May 19, 2022 by VVKOV of RU. It operates in LEO, CIRCULAR, RETROGRADE, SSO orbit with a mass of 3700.00 kg.

Upcoming Passes

Passes for default location (London). Set your location on the main map for personalized predictions.

Altitude History

Loading altitude history...

Two-Line Element Set

1 52713U 22054A 26195.17311382 .00001333 00000-0 54432-4 0 9992
2 52713 97.6294 145.4282 0001998 70.2394 289.9059 15.26240175230858
Epoch: Jul 14, 2026 • Age: 7 hours

Current Status

Altitude 505.3 km
Apogee / Perigee N/A
Velocity 7.61 km/s
Sub-Earth Point -43.94°S, 145.4°W
Launch Date May 19, 2022
Age 4.1 years
Type other

Technical Details

Classification Payload
Mass 3700.00 kg
Dry Mass 3500.00 kg
Total Mass 3700.00 kg
Length 6.00 m
Diameter 2.70 m
Span 10.00 m
Shape Cyl + 2 Pan
Manufacturer ARSLO
Bus Type Bars
Phase Status In Orbit
Owner/State VVKOV/RU

Most Searched